Time,TemperatureF,DewpointF,PressureIn,WindDirection,WindDirectionDegrees,WindSpeedMPH,WindSpeedGustMPH,Humidity,HourlyPrecipIn,Conditions,Clouds,dailyrainin,SoftwareType,DateUTC
2013-10-31 00:00:00,63.3,55.3,30.03,West,267,3.5,3.5,75,0.00,RA,,0.00,WeatherDisplay:10.37,2013-10-31 04:00:00,
2013-10-31 00:01:00,63.3,55.3,30.03,West,267,3.3,3.5,75,0.00,RA,,0.00,WeatherDisplay:10.37,2013-10-31 04:01:00,
2013-10-31 00:02:00,63.1,55.1,30.03,SE,132,3.9,4.9,75,0.00,RA,,0.00,WeatherDisplay:10.37,2013-10-31 04:02:00,
2013-10-31 00:04:00,63.1,55.1,30.03,SE,132,4.9,4.9,75,0.00,RA,,0.00,WeatherDisplay:10.37,2013-10-31 04:04:00,
2013-10-31 00:09:00,63.3,55.3,30.03,South,177,1.4,1.4,75,0.00,RA,,0.00,WeatherDisplay:10.37,2013-10-31 04:09:00,
2013-10-31 00:14:00,63.1,54.7,30.03,SSW,199,5.1,5.1,74,0.00,OVC,,0.00,WeatherDisplay:10.37,2013-10-31 04:14:00,
2013-10-31 00:19:00,63.1,55.1,30.03,SSW,199,3.4,3.5,75,0.00,OVC,,0.00,WeatherDisplay:10.37,2013-10-31 04:19:00,
2013-10-31 00:24:00,63.1,55.1,30.03,SW,222,2.1,4.6,75,0.00,OVC,,0.00,WeatherDisplay:10.37,2013-10-31 04:24:00,
2013-10-31 00:29:00,63.1,54.7,30.03,SW,222,2.8,5.8,74,0.00,OVC,,0.00,WeatherDisplay:10.37,2013-10-31 04:29:00,
2013-10-31 00:34:00,63.1,54.7,30.03,South,177,4.2,4.6,74,0.00,OVC,,0.00,WeatherDisplay:10.37,2013-10-31 04:34:00,
2013-10-31 00:39:00,63.1,54.7,30.03,SE,132,4.1,5.8,74,0.00,OVC,,0.00,WeatherDisplay:10.37,2013-10-31 04:39:00,
2013-10-31 00:44:00,63.1,54.7,30.03,WSW,245,2.7,3.5,74,0.00,OVC,,0.00,WeatherDisplay:10.37,2013-10-31 04:44:00,
2013-10-31 00:49:00,63.1,54.7,30.02,SSE,155,1.8,2.3,74,0.00,OVC,,0.00,WeatherDisplay:10.37,2013-10-31 04:49:00,
2013-10-31 00:54:00,63.1,54.7,30.02,SSW,199,3.5,5.1,74,0.00,OVC,,0.00,WeatherDisplay:10.37,2013-10-31 04:54:00,
2013-10-31 00:59:00,63.1,54.7,30.02,SSE,155,2.5,2.5,74,0.00,OVC,,0.00,WeatherDisplay:10.37,2013-10-31 04:59:00,
2013-10-31 01:04:00,63.1,54.7,30.02,SSE,155,2.2,3.1,74,0.00,OVC,,0.00,WeatherDisplay:10.37,2013-10-31 05:04:00,
2013-10-31 01:09:00,63.0,54.5,30.02,South,177,4.0,4.0,74,0.00,-RA,,0.00,WeatherDisplay:10.37,2013-10-31 05:09:00,
2013-10-31 01:14:00,63.0,54.5,30.02,SSW,199,4.4,5.8,74,0.00,-RA,,0.00,WeatherDisplay:10.37,2013-10-31 05:14:00,
2013-10-31 01:19:00,63.0,54.5,30.02,South,177,2.5,5.4,74,0.00,-RA,,0.00,WeatherDisplay:10.37,2013-10-31 05:19:00,
2013-10-31 01:24:00,62.8,54.4,30.01,South,177,4.7,4.7,74,0.00,-RA,,0.00,WeatherDisplay:10.37,2013-10-31 05:24:00,
2013-10-31 01:29:00,62.8,54.4,30.01,South,177,1.1,1.1,74,0.00,-RA,,0.00,WeatherDisplay:10.37,2013-10-31 05:29:00,
2013-10-31 01:34:00,62.8,54.4,30.01,SW,222,1.8,2.3,74,0.00,-RA,,0.00,WeatherDisplay:10.37,2013-10-31 05:34:00,
2013-10-31 01:39:00,62.8,54.4,30.01,SW,222,1.7,1.7,74,0.00,-RA,,0.00,WeatherDisplay:10.37,2013-10-31 05:39:00,
2013-10-31 01:44:00,62.8,54.4,30.00,SSE,155,2.1,3.5,74,0.00,-RA,,0.00,WeatherDisplay:10.37,2013-10-31 05:44:00,
2013-10-31 01:49:00,62.6,54.2,30.00,WSW,245,0.0,0.0,74,0.00,-RA,,0.00,WeatherDisplay:10.37,2013-10-31 05:49:00,
2013-10-31 01:54:00,62.4,54.0,30.00,South,177,1.8,2.3,74,0.00,-RA,,0.00,WeatherDisplay:10.37,2013-10-31 05:54:00,
2013-10-31 01:59:00,62.4,54.0,30.00,South,177,0.0,2.7,74,0.00,-RA,,0.00,WeatherDisplay:10.37,2013-10-31 05:59:00,
2013-10-31 02:04:00,62.4,54.0,29.99,SSE,155,3.6,3.6,74,0.00,-RA,,0.00,WeatherDisplay:10.37,2013-10-31 06:04:00,
2013-10-31 02:09:00,62.4,54.0,29.99,SSE,155,0.0,0.0,74,0.00,SCT,,0.00,WeatherDisplay:10.37,2013-10-31 06:09:00,
2013-10-31 02:14:00,62.4,54.0,29.99,SSW,199,4.7,4.7,74,0.00,SCT,,0.00,WeatherDisplay:10.37,2013-10-31 06:14:00,
2013-10-31 02:19:00,62.2,53.8,29.99,SSW,199,2.9,4.6,74,0.00,SCT,,0.00,WeatherDisplay:10.37,2013-10-31 06:19:00,
2013-10-31 02:24:00,62.1,53.7,29.99,ESE,109,4.9,0.0,74,0.00,SCT,,0.00,WeatherDisplay:10.37,2013-10-31 06:24:00,
2013-10-31 02:29:00,61.9,53.5,29.98,SE,132,3.6,3.6,74,0.00,SCT,,0.00,WeatherDisplay:10.37,2013-10-31 06:29:00,
2013-10-31 02:34:00,61.9,53.5,29.98,South,177,3.8,3.8,74,0.00,SCT,,0.00,WeatherDisplay:10.37,2013-10-31 06:34:00,
2013-10-31 02:39:00,61.9,53.5,29.98,SSE,155,7.4,7.4,74,0.00,SCT,,0.00,WeatherDisplay:10.37,2013-10-31 06:39:00,
2013-10-31 02:44:00,61.9,53.5,29.98,South,177,3.3,3.5,74,0.00,SCT,,0.00,WeatherDisplay:10.37,2013-10-31 06:44:00,
2013-10-31 02:49:00,62.1,54.0,29.98,SSW,199,4.0,4.0,75,0.00,SCT,,0.00,WeatherDisplay:10.37,2013-10-31 06:49:00,
2013-10-31 02:54:00,61.9,53.5,29.98,WNW,289,2.3,2.3,74,0.00,SCT,,0.00,WeatherDisplay:10.37,2013-10-31 06:54:00,
2013-10-31 02:59:00,62.1,53.7,29.98,SSW,199,4.0,4.0,74,0.00,SCT,,0.00,WeatherDisplay:10.37,2013-10-31 06:59:00,
2013-10-31 03:04:00,62.1,53.7,29.97,WSW,245,2.8,3.5,74,0.00,SCT,,0.00,WeatherDisplay:10.37,2013-10-31 07:04:00,
2013-10-31 03:09:00,62.1,53.7,29.97,WSW,245,3.3,3.3,74,0.00,SCT,,0.00,WeatherDisplay:10.37,2013-10-31 07:09:00,
2013-10-31 03:14:00,62.1,53.7,29.97,SSE,155,0.0,4.6,74,0.00,SCT,,0.00,WeatherDisplay:10.37,2013-10-31 07:14:00,
2013-10-31 03:19:00,62.1,53.7,29.96,South,177,2.7,4.5,74,0.00,SCT,,0.00,WeatherDisplay:10.37,2013-10-31 07:19:00,
2013-10-31 03:24:00,62.1,53.7,29.96,SSW,199,2.7,3.5,74,0.00,SCT,,0.00,WeatherDisplay:10.37,2013-10-31 07:24:00,
2013-10-31 03:29:00,62.2,53.8,29.96,SW,222,6.9,6.9,74,0.00,SCT,,0.00,WeatherDisplay:10.37,2013-10-31 07:29:00,
2013-10-31 03:34:00,62.2,53.8,29.96,WNW,289,2.9,3.5,74,0.00,SCT,,0.00,WeatherDisplay:10.37,2013-10-31 07:34:00,
2013-10-31 03:39:00,62.2,54.2,29.96,SSE,155,6.3,6.3,75,0.00,SCT,,0.00,WeatherDisplay:10.37,2013-10-31 07:39:00,
2013-10-31 03:44:00,62.4,54.4,29.97,WSW,245,2.7,2.7,75,0.00,SCT,,0.00,WeatherDisplay:10.37,2013-10-31 07:44:00,
2013-10-31 03:49:00,62.4,54.4,29.96,SW,222,3.5,3.5,75,0.00,SCT,,0.00,WeatherDisplay:10.37,2013-10-31 07:49:00,
2013-10-31 03:54:00,62.6,54.2,29.96,SE,132,6.3,6.3,74,0.00,SCT,,0.00,WeatherDisplay:10.37,2013-10-31 07:54:00,
2013-10-31 03:59:00,62.6,54.2,29.96,SSW,199,4.0,5.8,74,0.00,SCT,,0.00,WeatherDisplay:10.37,2013-10-31 07:59:00,
2013-10-31 04:04:00,62.8,54.4,29.96,WSW,245,5.4,8.1,74,0.00,SCT,,0.00,WeatherDisplay:10.37,2013-10-31 08:04:00,
2013-10-31 04:09:00,62.8,54.4,29.96,SE,132,5.4,5.8,74,0.00,FEW,,0.00,WeatherDisplay:10.37,2013-10-31 08:09:00,
2013-10-31 04:14:00,62.8,54.4,29.96,SSW,199,5.1,5.1,74,0.00,FEW,,0.00,WeatherDisplay:10.37,2013-10-31 08:14:00,
2013-10-31 04:19:00,62.8,54.4,29.95,South,177,4.2,6.9,74,0.00,FEW,,0.00,WeatherDisplay:10.37,2013-10-31 08:19:00,
2013-10-31 04:24:00,63.0,54.5,29.95,SE,132,2.5,2.5,74,0.00,FEW,,0.00,WeatherDisplay:10.37,2013-10-31 08:24:00,
2013-10-31 04:29:00,63.0,54.5,29.95,SSW,199,4.3,5.8,74,0.00,FEW,,0.00,WeatherDisplay:10.37,2013-10-31 08:29:00,
2013-10-31 04:34:00,63.1,54.7,29.95,SSW,199,8.9,9.2,74,0.00,FEW,,0.00,WeatherDisplay:10.37,2013-10-31 08:34:00,
2013-10-31 04:39:00,63.1,54.7,29.95,WSW,245,4.1,4.6,74,0.00,FEW,,0.00,WeatherDisplay:10.37,2013-10-31 08:39:00,
2013-10-31 04:44:00,63.1,54.7,29.95,SW,222,5.4,5.8,74,0.00,FEW,,0.00,WeatherDisplay:10.37,2013-10-31 08:44:00,
2013-10-31 04:49:00,63.1,54.3,29.95,South,177,8.6,10.4,73,0.00,FEW,,0.00,WeatherDisplay:10.37,2013-10-31 08:49:00,
2013-10-31 04:54:00,63.1,54.3,29.95,NW,312,4.7,4.7,73,0.00,FEW,,0.00,WeatherDisplay:10.37,2013-10-31 08:54:00,
2013-10-31 04:59:00,63.1,54.3,29.95,SW,222,3.8,3.8,73,0.00,FEW,,0.00,WeatherDisplay:10.37,2013-10-31 08:59:00,
2013-10-31 05:04:00,63.0,54.2,29.95,SSW,199,6.0,6.0,73,0.00,FEW,,0.00,WeatherDisplay:10.37,2013-10-31 09:04:00,
2013-10-31 05:09:00,63.0,54.2,29.95,SSW,199,6.3,7.4,73,0.00,BKN,,0.00,WeatherDisplay:10.37,2013-10-31 09:09:00,
2013-10-31 05:14:00,63.0,54.2,29.95,South,177,9.4,11.5,73,0.00,BKN,,0.00,WeatherDisplay:10.37,2013-10-31 09:14:00,
2013-10-31 05:19:00,63.0,54.5,29.95,SW,222,4.7,5.1,74,0.00,BKN,,0.00,WeatherDisplay:10.37,2013-10-31 09:19:00,
2013-10-31 05:24:00,63.0,54.5,29.95,South,177,6.6,7.4,74,0.00,BKN,,0.00,WeatherDisplay:10.37,2013-10-31 09:24:00,
2013-10-31 05:29:00,63.0,54.5,29.95,SSE,155,8.9,9.2,74,0.00,BKN,,0.00,WeatherDisplay:10.37,2013-10-31 09:29:00,
2013-10-31 05:34:00,63.0,54.5,29.95,SSW,199,7.7,8.1,74,0.00,BKN,,0.00,WeatherDisplay:10.37,2013-10-31 09:34:00,
2013-10-31 05:39:00,62.8,54.4,29.95,South,177,5.4,6.9,74,0.00,BKN,,0.00,WeatherDisplay:10.37,2013-10-31 09:39:00,
2013-10-31 05:44:00,62.8,54.7,29.95,SSW,199,3.4,3.5,75,0.00,BKN,,0.00,WeatherDisplay:10.37,2013-10-31 09:44:00,
2013-10-31 05:49:00,62.8,54.7,29.94,SSE,155,4.6,4.6,75,0.00,BKN,,0.00,WeatherDisplay:10.37,2013-10-31 09:49:00,
2013-10-31 05:54:00,62.6,54.6,29.94,SSW,199,5.1,8.1,75,0.00,BKN,,0.00,WeatherDisplay:10.37,2013-10-31 09:54:00,
2013-10-31 05:59:00,62.4,54.4,29.94,WSW,245,3.1,3.5,75,0.00,BKN,,0.00,WeatherDisplay:10.37,2013-10-31 09:59:00,
2013-10-31 06:04:00,62.4,54.4,29.94,South,177,4.0,4.6,75,0.00,BKN,,0.00,WeatherDisplay:10.37,2013-10-31 10:04:00,
2013-10-31 06:09:00,62.4,54.4,29.94,SW,222,4.6,4.7,75,0.00,-RA,,0.00,WeatherDisplay:10.37,2013-10-31 10:09:00,
2013-10-31 06:14:00,62.2,54.6,29.94,WSW,245,2.9,3.5,76,0.00,-RA,,0.00,WeatherDisplay:10.37,2013-10-31 10:14:00,
2013-10-31 06:19:00,62.2,54.6,29.93,SSW,199,12.1,12.1,76,0.00,-RA,,0.00,WeatherDisplay:10.37,2013-10-31 10:19:00,
2013-10-31 06:24:00,62.1,54.4,29.93,SE,132,5.3,5.3,76,0.00,-RA,,0.00,WeatherDisplay:10.37,2013-10-31 10:24:00,
2013-10-31 06:29:00,61.9,54.6,29.93,South,177,2.2,7.4,77,0.00,-RA,,0.00,WeatherDisplay:10.37,2013-10-31 10:29:00,
2013-10-31 06:34:00,61.9,54.6,29.93,SW,222,2.0,2.5,77,0.00,-RA,,0.00,WeatherDisplay:10.37,2013-10-31 10:34:00,
2013-10-31 06:39:00,61.9,54.6,29.92,SW,222,6.0,6.9,77,0.00,-RA,,0.00,WeatherDisplay:10.37,2013-10-31 10:39:00,
2013-10-31 06:44:00,61.9,54.6,29.92,SSE,155,4.2,4.6,77,0.00,-RA,,0.00,WeatherDisplay:10.37,2013-10-31 10:44:00,
2013-10-31 06:49:00,61.7,54.8,29.91,SW,222,3.5,5.8,78,0.00,-RA,,0.00,WeatherDisplay:10.37,2013-10-31 10:49:00,
2013-10-31 06:54:00,61.7,54.4,29.92,SSE,155,2.7,2.7,77,0.00,-RA,,0.00,WeatherDisplay:10.37,2013-10-31 10:54:00,
2013-10-31 06:59:00,61.7,54.8,29.91,SE,132,2.7,4.6,78,0.00,-RA,,0.00,WeatherDisplay:10.37,2013-10-31 10:59:00,
2013-10-31 07:04:00,61.7,54.4,29.91,SSW,199,5.1,5.1,77,0.00,-RA,,0.00,WeatherDisplay:10.37,2013-10-31 11:04:00,
2013-10-31 07:09:00,61.7,54.8,29.90,SSW,199,5.6,6.9,78,0.00,BKN,,0.00,WeatherDisplay:10.37,2013-10-31 11:09:00,
2013-10-31 07:14:00,61.7,54.4,29.90,SSE,155,2.8,4.6,77,0.00,BKN,,0.00,WeatherDisplay:10.37,2013-10-31 11:14:00,
2013-10-31 07:19:00,61.7,54.4,29.90,WNW,289,3.1,3.5,77,0.00,BKN,,0.00,WeatherDisplay:10.37,2013-10-31 11:19:00,
2013-10-31 07:24:00,61.9,54.6,29.90,West,267,3.7,5.1,77,0.00,BKN,,0.00,WeatherDisplay:10.37,2013-10-31 11:24:00,
2013-10-31 07:29:00,61.9,54.6,29.90,East,87,2.0,2.3,77,0.00,BKN,,0.00,WeatherDisplay:10.37,2013-10-31 11:29:00,
2013-10-31 07:34:00,61.9,54.6,29.89,West,267,8.9,9.2,77,0.00,BKN,,0.00,WeatherDisplay:10.37,2013-10-31 11:34:00,
2013-10-31 07:39:00,61.9,54.6,29.89,South,177,6.9,6.9,77,0.00,BKN,,0.00,WeatherDisplay:10.37,2013-10-31 11:39:00,
2013-10-31 07:44:00,61.9,54.6,29.89,South,177,6.3,6.3,77,0.00,BKN,,0.00,WeatherDisplay:10.37,2013-10-31 11:44:00,
2013-10-31 07:49:00,61.9,54.6,29.88,SE,132,3.6,4.2,77,0.00,BKN,,0.00,WeatherDisplay:10.37,2013-10-31 11:49:00,
2013-10-31 07:54:00,61.9,54.6,29.88,SW,222,5.6,6.9,77,0.00,BKN,,0.00,WeatherDisplay:10.37,2013-10-31 11:54:00,
2013-10-31 07:59:00,62.1,54.8,29.88,SSW,199,5.8,5.8,77,0.00,BKN,,0.00,WeatherDisplay:10.37,2013-10-31 11:59:00,
2013-10-31 08:04:00,61.9,54.6,29.87,SW,222,1.6,6.0,77,0.00,BKN,,0.00,WeatherDisplay:10.37,2013-10-31 12:04:00,
2013-10-31 08:09:00,61.9,54.6,29.87,SSW,199,5.0,5.1,77,0.00,OVC,,0.00,WeatherDisplay:10.37,2013-10-31 12:09:00,
2013-10-31 08:14:00,61.9,54.6,29.87,SW,222,7.5,8.3,77,0.00,OVC,,0.00,WeatherDisplay:10.37,2013-10-31 12:14:00,
2013-10-31 08:19:00,61.7,54.8,29.87,SW,222,10.5,11.8,78,0.00,OVC,,0.00,WeatherDisplay:10.37,2013-10-31 12:19:00,
2013-10-31 08:24:00,61.7,54.8,29.87,SSW,199,2.1,2.3,78,0.00,OVC,,0.00,WeatherDisplay:10.37,2013-10-31 12:24:00,
2013-10-31 08:29:00,61.7,54.8,29.87,NW,312,2.0,4.6,78,0.00,OVC,,0.00,WeatherDisplay:10.37,2013-10-31 12:29:00,
2013-10-31 08:34:00,61.5,54.6,29.86,South,177,6.0,8.1,78,0.00,OVC,,0.00,WeatherDisplay:10.37,2013-10-31 12:34:00,
2013-10-31 08:39:00,61.5,54.6,29.86,South,177,3.8,5.8,78,0.00,OVC,,0.00,WeatherDisplay:10.37,2013-10-31 12:39:00,
2013-10-31 08:44:00,61.5,54.9,29.86,SSE,155,5.4,5.8,79,0.00,OVC,,0.00,WeatherDisplay:10.37,2013-10-31 12:44:00,
2013-10-31 08:49:00,61.5,54.9,29.86,SSW,199,4.0,4.7,79,0.00,OVC,,0.00,WeatherDisplay:10.37,2013-10-31 12:49:00,
2013-10-31 08:54:00,61.5,54.9,29.86,SSE,155,2.9,2.9,79,0.00,OVC,,0.00,WeatherDisplay:10.37,2013-10-31 12:54:00,
2013-10-31 08:59:00,61.5,54.9,29.87,SSW,199,9.2,9.2,79,0.00,OVC,,0.00,WeatherDisplay:10.37,2013-10-31 12:59:00,
2013-10-31 09:04:00,61.5,54.9,29.87,SSW,199,2.8,3.6,79,0.00,OVC,,0.00,WeatherDisplay:10.37,2013-10-31 13:04:00,
2013-10-31 09:09:00,61.5,54.9,29.87,West,267,3.4,8.1,79,0.00,-RA,,0.00,WeatherDisplay:10.37,2013-10-31 13:09:00,
2013-10-31 09:14:00,61.5,54.9,29.86,SW,222,3.1,6.9,79,0.00,-RA,,0.00,WeatherDisplay:10.37,2013-10-31 13:14:00,
2013-10-31 09:19:00,61.5,54.9,29.86,SSW,199,9.9,13.4,79,0.00,-RA,,0.00,WeatherDisplay:10.37,2013-10-31 13:19:00,
2013-10-31 09:24:00,61.5,54.9,29.86,SSE,155,11.9,12.1,79,0.00,-RA,,0.00,WeatherDisplay:10.37,2013-10-31 13:24:00,
2013-10-31 09:29:00,61.5,54.9,29.86,SW,222,4.6,5.8,79,0.00,-RA,,0.00,WeatherDisplay:10.37,2013-10-31 13:29:00,
2013-10-31 09:34:00,61.5,54.9,29.86,SSW,199,4.2,5.4,79,0.00,-RA,,0.00,WeatherDisplay:10.37,2013-10-31 13:34:00,
2013-10-31 09:39:00,61.5,54.9,29.86,SW,222,6.3,8.1,79,0.04,-RA,,0.04,WeatherDisplay:10.37,2013-10-31 13:39:00,
2013-10-31 09:44:00,61.3,54.8,29.85,SSE,155,2.5,5.8,79,0.04,-RA,,0.04,WeatherDisplay:10.37,2013-10-31 13:44:00,
2013-10-31 09:49:00,61.3,54.8,29.85,WSW,245,7.3,12.1,79,0.04,-RA,,0.04,WeatherDisplay:10.37,2013-10-31 13:49:00,
2013-10-31 09:54:00,61.3,55.1,29.85,WSW,245,2.6,5.8,80,0.04,-RA,,0.04,WeatherDisplay:10.37,2013-10-31 13:54:00,
2013-10-31 09:59:00,61.3,55.1,29.85,SE,132,2.0,11.5,80,0.04,-RA,,0.04,WeatherDisplay:10.37,2013-10-31 13:59:00,
2013-10-31 10:04:00,61.3,55.1,29.85,SSE,155,6.7,6.9,80,0.04,-RA,,0.04,WeatherDisplay:10.37,2013-10-31 14:04:00,
2013-10-31 10:09:00,61.5,55.3,29.85,West,267,4.6,10.4,80,0.04,-RA,,0.04,WeatherDisplay:10.37,2013-10-31 14:09:00,
2013-10-31 10:14:00,61.5,55.3,29.85,SSE,155,10.9,11.5,80,0.04,-RA,,0.04,WeatherDisplay:10.37,2013-10-31 14:14:00,
2013-10-31 10:19:00,61.5,54.9,29.85,South,177,9.8,13.8,79,0.04,-RA,,0.04,WeatherDisplay:10.37,2013-10-31 14:19:00,
2013-10-31 10:24:00,61.7,55.1,29.85,South,177,12.7,12.7,79,0.04,-RA,,0.04,WeatherDisplay:10.37,2013-10-31 14:24:00,
2013-10-31 10:29:00,61.7,55.1,29.85,ESE,109,14.5,15.0,79,0.04,-RA,,0.04,WeatherDisplay:10.37,2013-10-31 14:29:00,
2013-10-31 10:34:00,61.9,55.3,29.84,SSW,199,3.3,7.4,79,0.04,-RA,,0.04,WeatherDisplay:10.37,2013-10-31 14:34:00,
2013-10-31 10:39:00,62.1,55.5,29.84,SSW,199,11.4,15.0,79,0.00,-RA,,0.04,WeatherDisplay:10.37,2013-10-31 14:39:00,
2013-10-31 10:44:00,62.2,55.6,29.84,SSW,199,6.7,6.9,79,0.00,-RA,,0.04,WeatherDisplay:10.37,2013-10-31 14:44:00,
2013-10-31 10:49:00,62.4,55.5,29.84,ESE,109,15.4,17.3,78,0.00,-RA,,0.04,WeatherDisplay:10.37,2013-10-31 14:49:00,
2013-10-31 10:54:00,62.4,55.5,29.84,South,177,10.7,10.7,78,0.00,-RA,,0.04,WeatherDisplay:10.37,2013-10-31 14:54:00,
2013-10-31 10:59:00,62.4,55.1,29.84,South,177,18.1,18.4,77,0.00,-RA,,0.04,WeatherDisplay:10.37,2013-10-31 14:59:00,
2013-10-31 11:04:00,62.4,55.1,29.84,SSE,155,6.3,6.3,77,0.00,-RA,,0.04,WeatherDisplay:10.37,2013-10-31 15:04:00,
2013-10-31 11:09:00,62.4,55.1,29.83,West,267,16.3,21.9,77,0.00,-RA,,0.04,WeatherDisplay:10.37,2013-10-31 15:09:00,
2013-10-31 11:14:00,62.4,55.5,29.84,West,267,10.7,10.7,78,0.00,-RA,,0.04,WeatherDisplay:10.37,2013-10-31 15:14:00,
2013-10-31 11:19:00,61.7,54.8,29.83,SW,222,11.4,11.5,78,0.00,-RA,,0.04,WeatherDisplay:10.37,2013-10-31 15:19:00,
2013-10-31 11:24:00,61.7,54.8,29.82,South,177,7.2,11.5,78,0.00,-RA,,0.04,WeatherDisplay:10.37,2013-10-31 15:24:00,
2013-10-31 11:29:00,61.5,54.9,29.81,South,177,5.8,15.0,79,0.00,-RA,,0.04,WeatherDisplay:10.37,2013-10-31 15:29:00,
2013-10-31 11:34:00,61.5,54.9,29.81,WSW,245,11.6,11.6,79,0.00,-RA,,0.04,WeatherDisplay:10.37,2013-10-31 15:34:00,
2013-10-31 11:39:00,61.3,54.8,29.80,WSW,245,4.5,8.1,79,0.00,-RA,,0.04,WeatherDisplay:10.37,2013-10-31 15:39:00,
2013-10-31 11:44:00,61.3,55.1,29.78,South,177,8.4,11.5,80,0.00,-RA,,0.04,WeatherDisplay:10.37,2013-10-31 15:44:00,
2013-10-31 11:49:00,61.3,55.1,29.79,SSE,155,11.4,11.5,80,0.00,-RA,,0.04,WeatherDisplay:10.37,2013-10-31 15:49:00,
2013-10-31 11:51:00,64.2,60.9,29.49,SW,223,18.0,20.0,89,0.36,-RA,,2.42,WeatherDisplay:10.37,2013-10-31 15:51:00,
2013-10-31 11:52:00,64.2,60.9,29.49,SW,223,18.0,0.0,89,0.36,-RA,,2.42,WeatherDisplay:10.37,2013-10-31 15:52:00,
2013-10-31 11:53:00,64.2,60.9,29.49,SW,223,18.0,0.0,89,0.36,-RA,,2.42,WeatherDisplay:10.37,2013-10-31 15:53:00,
2013-10-31 11:54:00,61.3,55.1,29.77,SW,222,11.3,11.6,80,0.00,-RA,,0.04,WeatherDisplay:10.37,2013-10-31 15:54:00,
2013-10-31 11:55:00,64.2,60.9,29.49,SW,223,18.0,0.0,89,0.36,-RA,,2.42,WeatherDisplay:10.37,2013-10-31 15:55:00,
2013-10-31 11:59:00,61.5,55.3,29.76,SE,132,11.2,11.5,80,0.00,-RA,,0.04,WeatherDisplay:10.37,2013-10-31 15:59:00,
2013-10-31 12:04:00,61.5,55.3,29.76,SW,222,5.8,5.8,80,0.00,-RA,,0.04,WeatherDisplay:10.37,2013-10-31 16:04:00,
2013-10-31 12:09:00,61.5,55.3,29.76,SSE,155,9.8,10.4,80,0.00,-RA,,0.04,WeatherDisplay:10.37,2013-10-31 16:09:00,
2013-10-31 12:14:00,61.7,55.1,29.76,SE,132,4.2,4.6,79,0.00,-RA,,0.04,WeatherDisplay:10.37,2013-10-31 16:14:00,
2013-10-31 12:19:00,61.9,55.3,29.75,East,87,10.8,16.1,79,0.00,-RA,,0.04,WeatherDisplay:10.37,2013-10-31 16:19:00,
2013-10-31 12:24:00,61.9,55.3,29.75,South,177,8.3,13.8,79,0.00,-RA,,0.04,WeatherDisplay:10.37,2013-10-31 16:24:00,
2013-10-31 12:29:00,62.2,55.6,29.75,South,177,19.7,19.7,79,0.00,-RA,,0.04,WeatherDisplay:10.37,2013-10-31 16:29:00,
2013-10-31 12:34:00,62.2,55.6,29.74,WSW,245,9.8,13.0,79,0.00,-RA,,0.04,WeatherDisplay:10.37,2013-10-31 16:34:00,
2013-10-31 12:39:00,62.4,56.2,29.74,WSW,245,13.0,13.0,80,0.00,-RA,,0.04,WeatherDisplay:10.37,2013-10-31 16:39:00,
2013-10-31 12:44:00,62.4,55.8,29.74,SE,132,8.5,25.3,79,0.00,-RA,,0.04,WeatherDisplay:10.37,2013-10-31 16:44:00,
2013-10-31 12:49:00,62.4,56.2,29.74,SSE,155,6.7,11.5,80,0.00,-RA,,0.04,WeatherDisplay:10.37,2013-10-31 16:49:00,
2013-10-31 12:54:00,62.4,56.2,29.73,WSW,245,11.8,20.7,80,0.00,-RA,,0.04,WeatherDisplay:10.37,2013-10-31 16:54:00,
2013-10-31 12:59:00,62.4,56.2,29.73,SE,132,6.0,6.0,80,0.00,-RA,,0.04,WeatherDisplay:10.37,2013-10-31 16:59:00,
2013-10-31 13:04:00,62.4,56.2,29.72,SW,222,14.4,26.5,80,0.00,-RA,,0.04,WeatherDisplay:10.37,2013-10-31 17:04:00,
2013-10-31 13:09:00,62.8,56.5,29.72,SSW,199,12.1,12.7,80,0.00,OVC,,0.04,WeatherDisplay:10.37,2013-10-31 17:09:00,
2013-10-31 13:14:00,63.0,56.7,29.71,SE,132,8.1,21.9,80,0.00,OVC,,0.04,WeatherDisplay:10.37,2013-10-31 17:14:00,
2013-10-31 13:19:00,63.1,56.5,29.71,SW,222,12.1,12.1,79,0.00,OVC,,0.04,WeatherDisplay:10.37,2013-10-31 17:19:00,
2013-10-31 13:24:00,63.5,56.9,29.71,West,267,5.0,11.8,79,0.00,OVC,,0.04,WeatherDisplay:10.37,2013-10-31 17:24:00,
2013-10-31 13:29:00,63.7,57.0,29.71,SE,132,13.9,15.0,79,0.00,OVC,,0.04,WeatherDisplay:10.37,2013-10-31 17:29:00,
2013-10-31 13:34:00,63.7,56.7,29.71,SSE,155,4.2,9.2,78,0.00,OVC,,0.04,WeatherDisplay:10.37,2013-10-31 17:34:00,
2013-10-31 13:39:00,63.7,56.7,29.71,WSW,245,8.7,10.4,78,0.00,OVC,,0.04,WeatherDisplay:10.37,2013-10-31 17:39:00,
2013-10-31 13:44:00,63.9,57.2,29.70,SSE,155,16.8,17.4,79,0.00,OVC,,0.04,WeatherDisplay:10.37,2013-10-31 17:44:00,
2013-10-31 13:49:00,63.7,57.0,29.70,South,177,16.8,20.7,79,0.00,OVC,,0.04,WeatherDisplay:10.37,2013-10-31 17:49:00,
2013-10-31 13:54:00,63.7,57.4,29.69,SW,222,17.2,20.7,80,0.00,OVC,,0.04,WeatherDisplay:10.37,2013-10-31 17:54:00,
2013-10-31 13:59:00,63.5,57.2,29.69,SW,222,7.8,8.1,80,0.00,OVC,,0.04,WeatherDisplay:10.37,2013-10-31 17:59:00,
2013-10-31 14:04:00,63.3,57.4,29.69,SE,132,16.2,20.7,81,0.00,OVC,,0.04,WeatherDisplay:10.37,2013-10-31 18:04:00,
2013-10-31 14:09:00,63.3,57.4,29.68,SSE,155,8.1,9.2,81,0.04,RA,,0.08,WeatherDisplay:10.37,2013-10-31 18:09:00,
2013-10-31 14:14:00,63.3,57.4,29.68,SSE,155,8.9,19.2,81,0.04,RA,,0.08,WeatherDisplay:10.37,2013-10-31 18:14:00,
2013-10-31 14:19:00,63.1,57.6,29.67,SW,222,18.5,18.5,82,0.04,OVC,,0.08,WeatherDisplay:10.37,2013-10-31 18:19:00,
2013-10-31 14:24:00,63.1,57.6,29.67,WSW,245,19.6,19.6,82,0.04,OVC,,0.08,WeatherDisplay:10.37,2013-10-31 18:24:00,
2013-10-31 14:29:00,63.1,57.6,29.66,SSW,199,15.4,16.3,82,0.04,OVC,,0.08,WeatherDisplay:10.37,2013-10-31 18:29:00,
2013-10-31 14:34:00,63.0,57.4,29.66,ESE,109,3.6,12.7,82,0.04,OVC,,0.08,WeatherDisplay:10.37,2013-10-31 18:34:00,
2013-10-31 14:39:00,62.8,57.5,29.66,SW,222,4.1,10.4,83,0.04,OVC,,0.08,WeatherDisplay:10.37,2013-10-31 18:39:00,
2013-10-31 14:44:00,63.0,57.7,29.65,SW,222,8.9,12.7,83,0.04,OVC,,0.08,WeatherDisplay:10.37,2013-10-31 18:44:00,
2013-10-31 14:49:00,62.8,57.9,29.65,South,177,21.9,21.9,84,0.08,RA,,0.12,WeatherDisplay:10.37,2013-10-31 18:49:00,
2013-10-31 14:54:00,62.8,57.9,29.65,SW,222,6.3,17.0,84,0.08,RA,,0.12,WeatherDisplay:10.37,2013-10-31 18:54:00,
2013-10-31 14:59:00,63.0,58.0,29.65,SSE,155,19.0,19.6,84,0.08,OVC,,0.12,WeatherDisplay:10.37,2013-10-31 18:59:00,
2013-10-31 15:04:00,62.8,57.9,29.64,SSE,155,11.6,11.6,84,0.08,OVC,,0.12,WeatherDisplay:10.37,2013-10-31 19:04:00,
2013-10-31 15:09:00,63.0,58.0,29.64,WSW,245,5.8,12.7,84,0.04,-RA,,0.12,WeatherDisplay:10.37,2013-10-31 19:09:00,
2013-10-31 15:14:00,63.0,58.0,29.64,SSW,199,17.0,20.7,84,0.04,-RA,,0.12,WeatherDisplay:10.37,2013-10-31 19:14:00,
2013-10-31 15:19:00,63.1,58.2,29.64,SW,222,4.6,4.7,84,0.04,-RA,,0.12,WeatherDisplay:10.37,2013-10-31 19:19:00,
2013-10-31 15:24:00,63.1,58.2,29.64,SE,132,19.2,19.6,84,0.04,-RA,,0.12,WeatherDisplay:10.37,2013-10-31 19:24:00,
2013-10-31 15:29:00,63.1,58.2,29.64,SSW,199,9.8,10.4,84,0.04,-RA,,0.12,WeatherDisplay:10.37,2013-10-31 19:29:00,
2013-10-31 15:34:00,63.1,58.6,29.63,South,177,19.6,20.1,85,0.04,-RA,,0.12,WeatherDisplay:10.37,2013-10-31 19:34:00,
2013-10-31 15:39:00,63.1,58.6,29.62,SSW,199,18.3,18.4,85,0.04,-RA,,0.12,WeatherDisplay:10.37,2013-10-31 19:39:00,
2013-10-31 15:44:00,63.1,58.6,29.62,SSW,199,19.5,20.7,85,0.04,-RA,,0.12,WeatherDisplay:10.37,2013-10-31 19:44:00,
2013-10-31 15:49:00,63.1,58.6,29.62,SSW,199,21.5,23.0,85,0.04,-RA,,0.16,WeatherDisplay:10.37,2013-10-31 19:49:00,
2013-10-31 15:53:00,63.1,58.6,29.62,SW,222,9.5,9.5,85,0.04,-RA,,0.16,WeatherDisplay:10.37,2013-10-31 19:53:00,
2013-10-31 15:58:00,63.1,58.9,29.62,South,177,5.4,5.8,86,0.04,-RA,,0.16,WeatherDisplay:10.37,2013-10-31 19:58:00,
2013-10-31 16:03:00,63.1,58.9,29.61,SW,222,6.3,6.3,86,0.04,-RA,,0.16,WeatherDisplay:10.37,2013-10-31 20:03:00,
2013-10-31 16:08:00,63.1,58.9,29.61,South,177,9.1,9.2,86,0.04,-RA,,0.16,WeatherDisplay:10.37,2013-10-31 20:08:00,
2013-10-31 16:13:00,63.3,59.1,29.61,WSW,245,8.7,8.7,86,0.04,-RA,,0.16,WeatherDisplay:10.37,2013-10-31 20:13:00,
2013-10-31 16:18:00,63.5,59.2,29.60,SE,132,6.0,6.0,86,0.04,-RA,,0.16,WeatherDisplay:10.37,2013-10-31 20:18:00,
2013-10-31 16:23:00,63.5,59.2,29.59,SSE,155,16.1,16.1,86,0.08,-RA,,0.20,WeatherDisplay:10.37,2013-10-31 20:23:00,
2013-10-31 16:28:00,63.5,59.2,29.59,WSW,245,8.5,9.2,86,0.08,-RA,,0.20,WeatherDisplay:10.37,2013-10-31 20:28:00,
2013-10-31 16:33:00,63.5,59.2,29.59,SW,222,13.6,13.8,86,0.12,-RA,,0.24,WeatherDisplay:10.37,2013-10-31 20:33:00,
2013-10-31 16:38:00,63.7,59.4,29.59,NW,312,12.2,13.8,86,0.14,-RA,,0.26,WeatherDisplay:10.37,2013-10-31 20:38:00,
2013-10-31 16:43:00,63.7,59.4,29.59,WSW,245,10.7,11.5,86,0.14,-RA,,0.26,WeatherDisplay:10.37,2013-10-31 20:43:00,
2013-10-31 16:48:00,63.7,59.4,29.59,SSW,199,12.3,12.3,86,0.10,-RA,,0.26,WeatherDisplay:10.37,2013-10-31 20:48:00,
2013-10-31 16:53:00,63.7,59.4,29.58,SE,132,11.8,13.0,86,0.10,-RA,,0.26,WeatherDisplay:10.37,2013-10-31 20:53:00,
2013-10-31 16:58:00,63.7,59.4,29.58,SE,132,15.2,15.2,86,0.10,-RA,,0.26,WeatherDisplay:10.37,2013-10-31 20:58:00,
2013-10-31 17:03:00,63.9,59.9,29.58,SW,222,10.2,10.2,87,0.10,-RA,,0.26,WeatherDisplay:10.37,2013-10-31 21:03:00,
2013-10-31 17:08:00,63.9,59.9,29.58,SE,132,9.5,10.4,87,0.14,-RA,,0.30,WeatherDisplay:10.37,2013-10-31 21:08:00,
2013-10-31 17:13:00,64.0,60.1,29.58,SE,132,9.5,10.4,87,0.14,-RA,,0.30,WeatherDisplay:10.37,2013-10-31 21:13:00,
2013-10-31 17:18:00,63.9,59.9,29.57,SE,132,6.3,6.3,87,0.14,-RA,,0.30,WeatherDisplay:10.37,2013-10-31 21:18:00,
2013-10-31 17:23:00,64.0,60.1,29.56,SSE,155,5.8,5.8,87,0.10,-RA,,0.30,WeatherDisplay:10.37,2013-10-31 21:23:00,
2013-10-31 17:28:00,64.0,60.1,29.55,ESE,109,5.3,9.2,87,0.10,-RA,,0.30,WeatherDisplay:10.37,2013-10-31 21:28:00,
2013-10-31 17:33:00,64.0,60.1,29.55,SW,222,6.3,6.3,87,0.06,-RA,,0.30,WeatherDisplay:10.37,2013-10-31 21:33:00,
2013-10-31 17:38:00,64.0,60.1,29.54,South,177,17.2,17.3,87,0.04,-RA,,0.30,WeatherDisplay:10.37,2013-10-31 21:38:00,
2013-10-31 17:43:00,64.0,60.4,29.53,WSW,245,7.8,10.4,88,0.04,-RA,,0.30,WeatherDisplay:10.37,2013-10-31 21:43:00,
2013-10-31 17:48:00,64.0,60.4,29.53,SSW,199,13.1,16.1,88,0.04,-RA,,0.30,WeatherDisplay:10.37,2013-10-31 21:48:00,
2013-10-31 17:53:00,64.2,60.6,29.53,SW,222,8.7,20.7,88,0.04,-RA,,0.30,WeatherDisplay:10.37,2013-10-31 21:53:00,
2013-10-31 17:58:00,64.2,60.6,29.52,SSW,199,9.8,11.5,88,0.04,-RA,,0.30,WeatherDisplay:10.37,2013-10-31 21:58:00,
2013-10-31 18:03:00,64.2,60.6,29.53,South,177,19.4,19.6,88,0.04,-RA,,0.30,WeatherDisplay:10.37,2013-10-31 22:03:00,
2013-10-31 18:08:00,64.2,60.6,29.52,SSW,199,8.0,8.1,88,0.00,OVC,,0.30,WeatherDisplay:10.37,2013-10-31 22:08:00,
2013-10-31 18:13:00,64.2,60.6,29.52,SSE,155,16.2,18.5,88,0.04,RA,,0.34,WeatherDisplay:10.37,2013-10-31 22:13:00,
2013-10-31 18:18:00,64.2,60.6,29.52,SSW,199,14.6,17.3,88,0.04,RA,,0.34,WeatherDisplay:10.37,2013-10-31 22:18:00,
2013-10-31 18:23:00,64.4,60.8,29.52,SW,222,11.5,11.5,88,0.04,OVC,,0.34,WeatherDisplay:10.37,2013-10-31 22:23:00,
2013-10-31 18:28:00,64.6,60.9,29.52,SW,222,8.8,11.5,88,0.04,OVC,,0.34,WeatherDisplay:10.37,2013-10-31 22:28:00,
2013-10-31 18:33:00,64.6,60.9,29.52,South,177,6.9,12.7,88,0.04,OVC,,0.34,WeatherDisplay:10.37,2013-10-31 22:33:00,
2013-10-31 18:38:00,64.6,60.9,29.51,SW,222,17.0,17.3,88,0.04,OVC,,0.34,WeatherDisplay:10.37,2013-10-31 22:38:00,
2013-10-31 18:43:00,64.6,60.9,29.51,WSW,245,6.0,6.0,88,0.04,OVC,,0.34,WeatherDisplay:10.37,2013-10-31 22:43:00,
2013-10-31 18:48:00,64.6,60.9,29.51,WSW,245,21.0,21.0,88,0.04,OVC,,0.34,WeatherDisplay:10.37,2013-10-31 22:48:00,
2013-10-31 18:53:00,64.8,61.1,29.51,SE,132,19.3,20.7,88,0.08,RA,,0.38,WeatherDisplay:10.37,2013-10-31 22:53:00,
2013-10-31 18:58:00,64.8,61.1,29.50,SSE,155,7.5,8.5,88,0.08,RA,,0.38,WeatherDisplay:10.37,2013-10-31 22:58:00,
2013-10-31 19:03:00,64.8,61.1,29.49,SSE,155,12.3,12.7,88,0.08,OVC,,0.38,WeatherDisplay:10.37,2013-10-31 23:03:00,
2013-10-31 19:08:00,64.8,60.8,29.49,South,177,18.1,18.4,87,0.08,-RA,,0.38,WeatherDisplay:10.37,2013-10-31 23:08:00,
2013-10-31 19:13:00,64.8,60.8,29.50,SSW,199,11.4,13.4,87,0.04,-RA,,0.38,WeatherDisplay:10.37,2013-10-31 23:13:00,
2013-10-31 19:18:00,64.8,61.1,29.49,SSW,199,11.0,11.5,88,0.04,-RA,,0.38,WeatherDisplay:10.37,2013-10-31 23:18:00,
2013-10-31 19:23:00,64.8,61.1,29.50,SSE,155,20.1,27.6,88,0.04,-RA,,0.38,WeatherDisplay:10.37,2013-10-31 23:23:00,
2013-10-31 19:28:00,64.8,61.1,29.50,WSW,245,12.0,22.8,88,0.04,-RA,,0.38,WeatherDisplay:10.37,2013-10-31 23:28:00,
2013-10-31 19:33:00,64.8,61.1,29.49,WSW,245,11.8,11.8,88,0.04,-RA,,0.38,WeatherDisplay:10.37,2013-10-31 23:33:00,
2013-10-31 19:38:00,64.8,61.1,29.49,SSE,155,12.9,20.7,88,0.04,-RA,,0.38,WeatherDisplay:10.37,2013-10-31 23:38:00,
2013-10-31 19:43:00,64.8,61.1,29.49,SSE,155,18.3,18.4,88,0.04,-RA,,0.38,WeatherDisplay:10.37,2013-10-31 23:43:00,
2013-10-31 19:48:00,64.8,61.1,29.49,SSE,155,20.3,24.2,88,0.06,-RA,,0.41,WeatherDisplay:10.37,2013-10-31 23:48:00,
2013-10-31 19:53:00,64.9,61.0,29.49,ESE,109,3.8,8.3,87,0.02,-RA,,0.41,WeatherDisplay:10.37,2013-10-31 23:53:00,
2013-10-31 19:58:00,64.9,61.0,29.50,WSW,245,12.7,12.7,87,0.02,-RA,,0.41,WeatherDisplay:10.37,2013-10-31 23:58:00,
2013-10-31 20:03:00,64.9,61.0,29.50,SW,222,20.3,20.7,87,0.02,-RA,,0.41,WeatherDisplay:10.37,2013-11-01 00:03:00,
2013-10-31 20:08:00,64.9,61.0,29.49,WSW,245,9.5,12.7,87,0.02,-RA,,0.41,WeatherDisplay:10.37,2013-11-01 00:08:00,
2013-10-31 20:13:00,64.8,60.8,29.49,South,177,18.2,19.6,87,0.02,-RA,,0.41,WeatherDisplay:10.37,2013-11-01 00:13:00,
2013-10-31 20:18:00,64.8,60.8,29.49,South,177,22.3,22.3,87,0.10,-RA,,0.49,WeatherDisplay:10.37,2013-11-01 00:18:00,
2013-10-31 20:23:00,64.8,60.8,29.49,South,177,19.3,19.6,87,0.14,-RA,,0.53,WeatherDisplay:10.37,2013-11-01 00:23:00,
2013-10-31 20:28:00,64.8,61.1,29.48,SSE,155,4.5,19.6,88,0.14,-RA,,0.53,WeatherDisplay:10.37,2013-11-01 00:28:00,
2013-10-31 20:33:00,64.8,61.1,29.48,SSE,155,11.2,11.5,88,0.14,-RA,,0.53,WeatherDisplay:10.37,2013-11-01 00:33:00,
2013-10-31 20:38:00,64.8,61.1,29.48,South,177,18.2,20.7,88,0.14,-RA,,0.53,WeatherDisplay:10.37,2013-11-01 00:38:00,
2013-10-31 20:43:00,64.8,61.1,29.48,SW,222,25.0,25.3,88,0.18,-RA,,0.57,WeatherDisplay:10.37,2013-11-01 00:43:00,
2013-10-31 20:48:00,64.8,61.1,29.47,SW,222,17.0,23.0,88,0.20,-RA,,0.61,WeatherDisplay:10.37,2013-11-01 00:48:00,
2013-10-31 20:53:00,64.8,61.1,29.47,WSW,245,7.7,10.4,88,0.20,-RA,,0.61,WeatherDisplay:10.37,2013-11-01 00:53:00,
2013-10-31 20:58:00,64.6,60.9,29.49,WSW,245,18.3,18.4,88,0.24,-RA,,0.65,WeatherDisplay:10.37,2013-11-01 00:58:00,
2013-10-31 21:03:00,64.6,60.9,29.49,West,267,10.1,15.0,88,0.43,-RA,,0.95,WeatherDisplay:10.37,2013-11-01 01:03:00,
2013-10-31 21:08:00,64.6,60.9,29.49,South,177,9.6,13.8,88,0.73,-RA,,1.14,WeatherDisplay:10.37,2013-11-01 01:08:00,
2013-10-31 21:13:00,64.6,60.9,29.49,NW,312,6.9,6.9,88,1.05,-RA,,1.46,WeatherDisplay:10.37,2013-11-01 01:13:00,
2013-10-31 21:18:00,64.2,60.6,29.49,WSW,245,17.1,21.2,88,1.33,-RA,,1.86,WeatherDisplay:10.37,2013-11-01 01:18:00,
2013-10-31 21:23:00,64.2,60.6,29.48,SSW,199,11.6,18.4,88,1.41,-RA,,1.94,WeatherDisplay:10.37,2013-11-01 01:23:00,
2013-10-31 21:28:00,64.0,60.7,29.47,North,357,12.7,12.7,89,1.45,-RA,,1.98,WeatherDisplay:10.37,2013-11-01 01:28:00,
2013-10-31 21:33:00,64.2,60.9,29.48,SW,222,20.9,22.1,89,1.45,-RA,,2.02,WeatherDisplay:10.37,2013-11-01 01:33:00,
2013-10-31 21:38:00,64.2,60.9,29.48,SSW,199,20.3,20.7,89,1.49,-RA,,2.02,WeatherDisplay:10.37,2013-11-01 01:38:00,
2013-10-31 21:43:00,64.2,60.9,29.48,East,87,15.7,17.3,89,1.49,-RA,,2.06,WeatherDisplay:10.37,2013-11-01 01:43:00,
2013-10-31 21:48:00,64.2,60.9,29.49,West,267,15.6,16.1,89,1.77,-RA,,2.38,WeatherDisplay:10.37,2013-11-01 01:48:00,
2013-10-31 21:55:00,64.2,60.9,29.49,SW,222,19.6,19.6,89,1.81,-RA,,2.42,WeatherDisplay:10.37,2013-11-01 01:55:00,
2013-10-31 21:59:00,64.2,60.9,29.48,SW,222,5.8,17.9,89,1.85,-RA,,2.46,WeatherDisplay:10.37,2013-11-01 01:59:00,
2013-10-31 22:04:00,64.2,60.9,29.48,WSW,245,17.8,19.6,89,1.79,-RA,,2.46,WeatherDisplay:10.37,2013-11-01 02:04:00,
2013-10-31 22:09:00,64.4,61.1,29.48,SSW,199,18.3,18.4,89,1.51,OVC,,2.46,WeatherDisplay:10.37,2013-11-01 02:09:00,
2013-10-31 22:14:00,64.6,61.3,29.48,SSW,199,22.3,22.3,89,1.32,OVC,,2.46,WeatherDisplay:10.37,2013-11-01 02:14:00,
2013-10-31 22:19:00,64.6,61.3,29.48,West,267,6.8,6.9,89,0.69,OVC,,2.46,WeatherDisplay:10.37,2013-11-01 02:19:00,
2013-10-31 22:24:00,64.6,61.3,29.48,West,267,5.1,16.1,89,0.64,RA,,2.50,WeatherDisplay:10.37,2013-11-01 02:24:00,
2013-10-31 22:29:00,64.6,61.3,29.49,SW,222,6.3,8.1,89,0.60,RA,,2.54,WeatherDisplay:10.37,2013-11-01 02:29:00,
2013-10-31 22:34:00,64.6,61.3,29.48,ENE,65,11.3,11.8,89,0.60,RA,,2.58,WeatherDisplay:10.37,2013-11-01 02:34:00,
2013-10-31 22:39:00,64.6,61.3,29.48,SSW,199,4.5,4.6,89,0.56,RA,,2.58,WeatherDisplay:10.37,2013-11-01 02:39:00,
2013-10-31 22:44:00,64.6,61.3,29.49,SW,222,14.1,14.1,89,0.56,OVC,,2.58,WeatherDisplay:10.37,2013-11-01 02:44:00,
2013-10-31 22:49:00,64.6,61.3,29.48,SW,222,11.5,17.3,89,0.56,RA,,2.63,WeatherDisplay:10.37,2013-11-01 02:49:00,
2013-10-31 22:54:00,64.6,61.3,29.49,SSW,199,7.8,16.1,89,0.20,RA,,2.63,WeatherDisplay:10.37,2013-11-01 02:54:00,
2013-10-31 22:59:00,64.6,61.3,29.49,WSW,245,4.0,10.4,89,0.16,OVC,,2.63,WeatherDisplay:10.37,2013-11-01 02:59:00,
2013-10-31 23:04:00,64.6,61.3,29.49,West,267,5.8,5.8,89,0.20,RA,,2.71,WeatherDisplay:10.37,2013-11-01 03:04:00,
2013-10-31 23:09:00,64.6,61.3,29.50,SSW,199,7.8,9.2,89,0.24,-RA,,2.71,WeatherDisplay:10.37,2013-11-01 03:09:00,
2013-10-31 23:14:00,64.6,61.3,29.49,SSW,199,9.2,9.2,89,0.24,-RA,,2.71,WeatherDisplay:10.37,2013-11-01 03:14:00,
2013-10-31 23:19:00,64.6,61.3,29.50,NW,312,5.9,7.6,89,0.24,-RA,,2.71,WeatherDisplay:10.37,2013-11-01 03:19:00,
2013-10-31 23:24:00,64.8,61.4,29.51,SW,222,8.3,8.3,89,0.20,-RA,,2.71,WeatherDisplay:10.37,2013-11-01 03:24:00,
2013-10-31 23:29:00,64.8,61.4,29.52,WSW,245,7.6,8.1,89,0.20,-RA,,2.75,WeatherDisplay:10.37,2013-11-01 03:29:00,
2013-10-31 23:34:00,64.8,61.4,29.51,WSW,245,7.2,7.2,89,0.24,-RA,,2.83,WeatherDisplay:10.37,2013-11-01 03:34:00,
2013-10-31 23:39:00,64.8,61.4,29.52,WSW,245,16.8,17.3,89,0.24,-RA,,2.83,WeatherDisplay:10.37,2013-11-01 03:39:00,
2013-10-31 23:44:00,64.8,61.4,29.53,West,267,19.7,20.7,89,0.24,-RA,,2.83,WeatherDisplay:10.37,2013-11-01 03:44:00,
2013-10-31 23:49:00,64.8,60.8,29.55,West,267,8.8,10.3,87,0.20,-RA,,2.83,WeatherDisplay:10.37,2013-11-01 03:49:00,
2013-10-31 23:54:00,63.3,56.3,29.56,NW,312,7.4,9.2,78,0.20,-RA,,2.83,WeatherDisplay:10.37,2013-11-01 03:54:00,
2013-10-31 23:59:00,61.7,54.8,29.55,WNW,289,7.8,8.1,78,0.20,-RA,,2.83,WeatherDisplay:10.37,2013-11-01 03:59:00,